Weather History for KBKV - July, 2013

Change the Weather History Date:

Tuesday, July 30, 2013

  Actual Average (KTPA) Record (KTPA)
Temperature  
Mean Temperature 82 °F 83 °F  
Max Temperature 93 °F 90 °F 96 °F (1961)
Min Temperature 71 °F 76 °F 69 °F (1904)
Degree Days  
Heating Degree Days 0 0  
Month to date heating degree days 0  
Since 1 June heating degree days 0  
Since 1 July heating degree days 0  
Cooling Degree Days 17 18  
Month to date cooling degree days 540  
Year to date cooling degree days 1933  
Since 1 June cooling degree days 1056  
Growing Degree Days 32 (Base 50)    
Moisture  
Dew Point 73 °F    
Average Humidity 80    
Maximum Humidity 96    
Minimum Humidity 49    
Precipitation  
Precipitation 1.41 in 0.22 in 2.16 in (2013)
Month to date precipitation 6.85  
Year to date precipitation 25.73  
Sea Level Pressure  
Sea Level Pressure 30.15 in    
Wind  
Wind Speed 3 mph (SE)    
Max Wind Speed 24 mph    
Max Gust Speed 33 mph    
Visibility 8 miles    
Events Rain    
T = Trace of Precipitation, MM = Missing Value Source: NWS Daily Summary

Daily Weather History Graph

Daily Weather History Graph

Search for Another Location

Airport or City:

Trip Planner

Search our weather history database for the weather conditions in past years. The results will help you decide how hot, cold, wet, or windy it might be!

Date:

Astronomy

Jul. 30, 2013 Rise Set
Actual Time 6:50 AM EDT 8:21 PM EDT
Civil Twilight 6:25 AM EDT 8:47 PM EDT
Nautical Twilight 5:54 AM EDT 9:17 PM EDT
Astronomical Twilight 5:22 AM EDT 9:49 PM EDT
Moon 1:03 AM EDT (7/30) 2:42 PM EDT (7/30)
Length of Visible Light 14h 22m
Length of Day
13h 30m
Last Quarter, 41% of the Moon is Illuminated
Jul 30
Last Quarter
Aug 6
New
Aug 14
First Quarter
Aug 20
Full
Aug 28
Last Quarter

Hourly Weather History & Observations

Time (EDT) Temp. Heat Index Dew Point Humidity Pressure Visibility Wind Dir Wind Speed Gust Speed Precip Events Conditions
12:53 AM 75.0 °F - 72.0 °F 90% 30.17 in 10.0 mi Calm Calm - N/A   Scattered Clouds
1:53 AM 75.0 °F - 72.0 °F 90% 30.16 in 10.0 mi Calm Calm - N/A   Clear
2:53 AM 75.0 °F - 72.0 °F 90% 30.15 in 10.0 mi Calm Calm - N/A   Clear
3:53 AM 73.9 °F - 72.0 °F 93% 30.14 in 10.0 mi SE 3.5 mph - N/A   Clear
4:53 AM 73.9 °F - 72.0 °F 93% 30.13 in 10.0 mi Calm Calm - N/A   Clear
5:53 AM 73.9 °F - 72.0 °F 93% 30.14 in 10.0 mi Calm Calm - N/A   Clear
6:53 AM 73.0 °F - 72.0 °F 96% 30.15 in 10.0 mi Calm Calm - N/A   Clear
7:53 AM 75.9 °F - 73.0 °F 91% 30.17 in 10.0 mi Calm Calm - N/A   Clear
8:53 AM 80.1 °F 84.5 °F 73.9 °F 81% 30.19 in 10.0 mi Calm Calm - N/A   Clear
9:53 AM 82.9 °F 90.2 °F 75.0 °F 77% 30.19 in 10.0 mi ESE 3.5 mph - N/A   Clear
10:53 AM 84.9 °F 92.1 °F 73.9 °F 69% 30.19 in 10.0 mi Calm Calm - N/A   Partly Cloudy
11:53 AM 88.0 °F 96.5 °F 73.9 °F 63% 30.19 in 10.0 mi Calm Calm - N/A   Clear
12:53 PM 89.1 °F 97.0 °F 73.0 °F 59% 30.17 in 10.0 mi Calm Calm - N/A   Partly Cloudy
1:53 PM 91.0 °F 99.3 °F 73.0 °F 55% 30.15 in 10.0 mi South 3.5 mph - N/A   Partly Cloudy
2:53 PM 93.0 °F 100.7 °F 72.0 °F 50% 30.13 in 10.0 mi East 5.8 mph - N/A   Partly Cloudy
3:53 PM 93.9 °F 102.1 °F 72.0 °F 49% 30.11 in 10.0 mi SE 5.8 mph - N/A   Clear
4:53 PM 90.0 °F 99.0 °F 73.9 °F 59% 30.09 in 10.0 mi NE 3.5 mph - N/A   Scattered Clouds
5:53 PM 90.0 °F 100.2 °F 75.0 °F 61% 30.09 in 10.0 mi WNW 6.9 mph - N/A   Clear
6:31 PM 84.2 °F 92.3 °F 75.2 °F 74% 30.12 in 1.2 mi Variable 5.8 mph - 0.15 in Rain Heavy Rain
6:40 PM 80.6 °F 85.4 °F 73.4 °F 79% 30.11 in 0.8 mi West 10.4 mph - 0.30 in Rain Rain
6:44 PM 82.4 °F 87.2 °F 71.6 °F 70% 30.11 in 2.5 mi West 10.4 mph - 0.30 in Rain Light Rain
6:51 PM 80.6 °F 85.4 °F 73.4 °F 79% 30.11 in 10.0 mi NW 5.8 mph - 0.30 in Rain Light Rain
6:53 PM 81.0 °F 85.8 °F 73.0 °F 77% 30.10 in 10.0 mi NW 4.6 mph - 0.30 in Rain Light Rain
7:53 PM 79.0 °F - 75.0 °F 88% 30.11 in 10.0 mi WSW 3.5 mph - 0.00 in   Clear
8:53 PM 80.1 °F 85.4 °F 75.9 °F 87% 30.13 in 10.0 mi SE 4.6 mph - 0.00 in Rain Light Rain
9:09 PM 78.8 °F - 73.4 °F 83% 30.14 in 5.0 mi SE 15.0 mph 18.4 mph 0.06 in Rain Rain
9:15 PM 75.2 °F - 71.6 °F 89% 30.14 in 1.5 mi ESE 24.2 mph 31.1 mph 0.32 in Rain Heavy Rain
9:21 PM 73.4 °F - 71.6 °F 94% 30.16 in 0.8 mi East 23.0 mph 33.4 mph 0.70 in Rain Heavy Rain
9:28 PM 73.4 °F - 69.8 °F 88% 30.19 in 1.0 mi North - - 0.92 in   Overcast
9:34 PM 73.4 °F - 68.0 °F 83% 30.17 in 1.8 mi Variable 4.6 mph 16.1 mph 1.03 in Rain Heavy Rain
9:43 PM 71.6 °F - 69.8 °F 94% 30.16 in 3.0 mi North 13.8 mph - 1.09 in Rain Rain
9:53 PM 73.0 °F - 69.1 °F 87% 30.15 in 9.0 mi WNW 6.9 mph - 1.10 in Rain Light Rain
10:53 PM 73.0 °F - 71.1 °F 93% 30.17 in 10.0 mi Calm Calm - 0.01 in   Clear
11:53 PM 73.0 °F - 71.1 °F 93% 30.16 in 10.0 mi Calm Calm - N/A   Partly Cloudy